Zurück zum Katalog

STARLINK-34749

AktivKommunikationSSO
NORAD 65675·PAYLOAD·🇺🇸 United States

Gestartet Sep 19, 2025 von Vandenberg Space Force Base

Loading…

Nächste Überflüge (nächste 24 Stunden)

TLE

AktuellSource: CelesTrak SupGP

Epoche: Sep 15, 2026, 03:56 UTC

1 65675C 25211Z   26258.16437500 -.00021574  00000+0 -67009-3 0  2582
2 65675  97.2831 298.5001 0001218  93.4080  39.4828 15.33432303    14

Verfolge STARLINK-34749 in Echtzeit mit AllMySat

Download on the App Store